NOAA 16 DEB, 41072

Orbit data source: Space-Track

NOAA 16 DEB, 41072 is space debris in SSO originally from a launch on Thu, 21 Sep 2000 UTC launched from the Air Force Western Test Range (AFWTR). Debris objects in space refer to the collection of defunct objects orbiting the Earth. Examples of debris include non-operational satellites, rocket bodies, and fragments generated from explosions, collisions, or faulty payload assembly.

Loading next visibility...
Identifier
41072, 2000-055AF
Orbit
SSO
Country
Flag of USUS
Related business
Manufacturer
Unknown
Mission
Spacecraft
Bus & Motor
Unknown
Mass
Unknown
Launch date (UTC)
2000-09-21 (26 years ago)
Launch vehicle
Unknown
Launch site
Air Force Western Test Range (AFWTR)
Object type
Payload
Rocket body
Debris
Shape & HBR
Unknown shape, 0.1 m
Radar Cross Section
Small (<0.1 m²)

Expand to show TLE details & history
Last TLE update: 5 hours ago

TLE from 5 hours ago
0 NOAA 16 DEB
1 41072U 00055AF  26120.12457350  .00000449  00000-0  55151-3 0  9999
2 41072  98.8355 192.0950 0283334 241.1438 116.0997 13.54758085514881
Epoch: 2026-04-30T02:59Z
TLE epoch observation values (Epoch: 2026-04-30T02:59:23.150Z)
Latitude
0.00001°
Longitude
-70.82714°
Altitude
1,155.015 km
Speed
7.228 km/s
True Right ascension
12h 48m 22s
True Declination
0° 00' 00"
Sunlit
Object was in full shadow at epoch
Visualization orbit readout
Latitude
Unknown
Longitude
Unknown
Altitude
Unknown
Speed
Unknown
Apparent Right ascension
Unknown
Apparent Declination
Unknown
Sunlit
N/A
Visualization observer readout
Local Sidereal Time
16:01:50
Azimuth
Unknown
Elevation
Unknown
Doppler factor
Unknown
Orbital elements
Apogee altitude
1,262.575 km
Perigee altitude
841.53 km
Semi-major axis
7,430.19 km
Eccentricity
0.02833
Inclination
98.8355°
RAAN
192.095°
Arg. of periapsis
241.1438°
True anomaly
118.96944°
Mean anomaly
116.0997°
Eccentric anomaly
117.53915°
Mean motion
3.38878 °/min
Orbital period
106.23 mins
BSTAR
0.00055151
Loading maneuver chart data...
Computing Atmospheric mass density...
Loading historical data...
Loading historical data...
Loading historical data...
Loading historical data...
Loading historical data...
Loading historical data...
Loading historical data...

Documentation

Showing up to 5 results
|